Tracking 30306 objects as of 23-Apr-2025
HD Live streaming from Space Station
objects crossing your sky now

DMSP 5D-2 F9 DEB

Track DMSP 5D-2 F9 DEB now!
10-day predictions


NORAD ID: 39046
Int'l Code: 1988-006M
Perigee: 763.6 km
Apogee: 868.9 km
Inclination: 98.6 °
Period: 101.1 minutes
Semi major axis: 7187 km
RCS: 0.0338 m2 (small)
Launch date: February 3, 1988
Source: United States (US)
Launch site: AIR FORCE WESTERN TEST RANGE (AFWTR)

Note: This is SATELLITE DEBRIS
Your satellite tracking list
Your tracking list is empty




NASA's NSSDC Master Catalog

Two Line Element Set (TLE):
1 39046U 88006M   25110.96373395  .00004632  00000-0  19482-2 0  9999
2 39046  98.6223 293.0215 0073255 103.0479  56.0772 14.24815310636508
Source of the keplerian elements: AFSPC